This is the latest recevied weather packets stored in our database for station/object EA5JUX. If no packets are shown the sender has not sent any weather packets the latest 10 day(s).
| Time | Temp. | Humidity | Pressure | Rain* | Wind** | Luminosity | Snow |
|---|---|---|---|---|---|---|---|
| 1778259737 | 18.33° C | 69% | 1011 hPa | 0 mm | - | - | - |
| 1778259448 | 18.89° C | 69% | 1011.2 hPa | 0 mm | - | - | - |
| 1778259136 | 18.89° C | 69% | 1011.2 hPa | 0 mm | - | - | - |
| 1778258836 | 18.89° C | 68% | 1011.1 hPa | 0 mm | - | - | - |
| 1778258546 | 18.89° C | 68% | 1011 hPa | 0 mm | - | - | - |
| 1778258236 | 18.89° C | 68% | 1010.9 hPa | 0 mm | - | - | - |
| 1778257952 | 19.44° C | 68% | 1011 hPa | 0 mm | - | - | - |
| 1778257636 | 19.44° C | 67% | 1011 hPa | 0 mm | - | - | - |
| 1778257336 | 19.44° C | 66% | 1011 hPa | 0 mm | - | - | - |
| 1778257036 | 19.44° C | 64% | 1011.4 hPa | 0 mm | - | - | - |
| 1778256736 | 19.44° C | 65% | 1011.2 hPa | 0 mm | - | - | - |
| 1778256447 | 19.44° C | 65% | 1011.3 hPa | 0 mm | - | - | - |
| 1778256136 | 19.44° C | 65% | 1011.3 hPa | 0 mm | - | - | - |
| 1778255836 | 20° C | 65% | 1011.1 hPa | 0 mm | - | - | - |
| 1778255536 | 20° C | 65% | 1011.4 hPa | 0 mm | - | - | - |
| 1778255252 | 19.44° C | 66% | 1011.4 hPa | 0 mm | - | - | - |
| 1778254936 | 20° C | 64% | 1011.5 hPa | 0 mm | - | - | - |
| 1778254636 | 19.44° C | 64% | 1011.3 hPa | 0 mm | - | - | - |
| 1778254336 | 20° C | 62% | 1011.4 hPa | 0 mm | - | - | - |
| 1778254036 | 20° C | 64% | 1011.3 hPa | 0 mm | - | - | - |
| 1778253736 | 20° C | 64% | 1011.2 hPa | 0 mm | - | - | - |
| 1778253436 | 19.44° C | 65% | 1011.3 hPa | 0 mm | - | - | - |
| 1778253136 | 19.44° C | 68% | 1011.3 hPa | 0 mm | - | - | - |
| 1778252836 | 20° C | 65% | 1011.6 hPa | 0 mm | - | - | - |
| 1778252536 | 19.44° C | 66% | 1011.4 hPa | 0 mm | - | - | - |
* Rain latest hour (hover to see other rain measurements)
** Current wind speed in m/s (hover to see current wind gust speed)